• In Hungary
  • List of Countries
  • For 7 days
  • Water Temperature
  • Satellite Maps
  • Weather Map
  • News
  • Weather Widgets
  • user-avatar
    Login

    Hourly Weather Timbuktu

    Today, 21 September, Friday

    Time Temperature Precipitation Wind Pressure Humidity
    00:00 +41°C° 0 mm 4 mps 733 mmHg 24%
    01:00 +39°C° 0 mm 3 mps 733 mmHg 25%
    02:00 +38°C° 0 mm 3 mps 733 mmHg 26%
    03:00 +38°C° 0 mm 3 mps 733 mmHg 26%
    04:00 +37°C° 0 mm 3 mps 733 mmHg 27%
    05:00 +37°C° 0 mm 3 mps 733 mmHg 28%
    06:00 +37°C° 0 mm 2 mps 733 mmHg 29%
    07:00 +38°C° 0 mm 3 mps 734 mmHg 27%
    08:00 +40°C° 0 mm 4 mps 734 mmHg 26%
    09:00 +41°C° 0 mm 5 mps 735 mmHg 25%
    10:00 +41°C° 0 mm 5 mps 734 mmHg 24%
    11:00 +42°C° 0 mm 4 mps 734 mmHg 23%
    12:00 +43°C° 0 mm 4 mps 734 mmHg 22%
    13:00 +44°C° 0 mm 4 mps 733 mmHg 20%
    14:00 +44°C° 0 mm 3 mps 733 mmHg 19%
    15:00 +44°C° 0 mm 3 mps 732 mmHg 18%
    16:00 +44°C° 0 mm 3 mps 732 mmHg 18%
    17:00 +43°C° 0 mm 2 mps 732 mmHg 18%
    18:00 +43°C° 0 mm 2 mps 732 mmHg 18%
    19:00 +42°C° 0 mm 2 mps 733 mmHg 19%
    20:00 +42°C° 0 mm 2 mps 733 mmHg 20%
    21:00 +41°C° 0 mm 2 mps 733 mmHg 20%
    22:00 +40°C° 0 mm 3 mps 733 mmHg 23%
    23:00 +40°C° 0 mm 4 mps 733 mmHg 25%

    Tomorrow, 22 September, Saturday

    Time Temperature Precipitation Wind Pressure Humidity
    00:00 +40°C° 0 mm 4 mps 733 mmHg 27%
    01:00 +39°C° 0 mm 5 mps 733 mmHg 31%
    02:00 +38°C° 0 mm 6 mps 732 mmHg 35%
    03:00 +36°C° 0 mm 6 mps 732 mmHg 38%
    04:00 +35°C° 0 mm 7 mps 733 mmHg 41%
    05:00 +35°C° 0 mm 8 mps 733 mmHg 43%
    06:00 +34°C° 0 mm 8 mps 733 mmHg 46%
    07:00 +34°C° 0 mm 8 mps 734 mmHg 48%
    08:00 +34°C° 0 mm 9 mps 735 mmHg 50%
    09:00 +34°C° 0 mm 9 mps 735 mmHg 52%
    10:00 +35°C° 0 mm 9 mps 735 mmHg 48%
    11:00 +38°C° 0 mm 8 mps 735 mmHg 43%
    12:00 +39°C° 0 mm 8 mps 735 mmHg 38%
    13:00 +40°C° 0 mm 7 mps 734 mmHg 34%
    14:00 +41°C° 0 mm 6 mps 733 mmHg 30%
    15:00 +42°C° 0 mm 5 mps 733 mmHg 26%
    16:00 +42°C° 0 mm 5 mps 733 mmHg 26%
    17:00 +42°C° 0 mm 5 mps 733 mmHg 25%
    18:00 +41°C° 0 mm 5 mps 733 mmHg 25%
    19:00 +41°C° 0 mm 4 mps 733 mmHg 26%
    20:00 +41°C° 0 mm 4 mps 734 mmHg 27%
    21:00 +40°C° 0 mm 4 mps 734 mmHg 28%
    22:00 +40°C° 0 mm 4 mps 734 mmHg 29%
    23:00 +38°C° 0 mm 3 mps 734 mmHg 29%

    Day after tomorrow, 23 September, Sunday

    Time Temperature Precipitation Wind Pressure Humidity
    00:00 +38°C° 0 mm 3 mps 733 mmHg 30%
    01:00 +37°C° 0 mm 3 mps 733 mmHg 30%
    02:00 +37°C° 0 mm 3 mps 733 mmHg 31%
    03:00 +37°C° 0 mm 3 mps 733 mmHg 32%
    04:00 +36°C° 0 mm 3 mps 733 mmHg 33%
    05:00 +36°C° 0 mm 3 mps 733 mmHg 33%
    06:00 +35°C° 0 mm 3 mps 734 mmHg 34%
    07:00 +37°C° 0 mm 3 mps 734 mmHg 32%
    08:00 +38°C° 0 mm 3 mps 735 mmHg 30%
    09:00 +40°C° 0 mm 4 mps 735 mmHg 28%
    10:00 +41°C° 0 mm 4 mps 735 mmHg 25%
    11:00 +42°C° 0 mm 4 mps 735 mmHg 22%
    12:00 +44°C° 0 mm 3 mps 734 mmHg 18%
    13:00 +44°C° 0 mm 3 mps 734 mmHg 17%
    14:00 +43°C° 0 mm 2 mps 733 mmHg 15%
    15:00 +44°C° 0 mm 1 mps 733 mmHg 14%
    16:00 +45°C° 0.1 mm 2 mps 733 mmHg 14%
    17:00 +43°C° 0.1 mm 2 mps 733 mmHg 15%
    18:00 +43°C° 0.1 mm 2 mps 733 mmHg 15%
    19:00 +42°C° 0 mm 2 mps 733 mmHg 17%
    20:00 +42°C° 0 mm 2 mps 733 mmHg 18%
    21:00 +41°C° 0 mm 2 mps 734 mmHg 20%
    22:00 +40°C° 0 mm 3 mps 734 mmHg 21%
    23:00 +40°C° 0 mm 3 mps 734 mmHg 23%

    24 September, Monday

    Time Temperature Precipitation Wind Pressure Humidity
    00:00 +39°C° 0 mm 3 mps 734 mmHg 24%
    01:00 +39°C° 0 mm 5 mps 734 mmHg 29%
    02:00 +38°C° 0 mm 6 mps 734 mmHg 33%
    03:00 +37°C° 0 mm 8 mps 734 mmHg 37%
    04:00 +35°C° 0 mm 8 mps 734 mmHg 40%
    05:00 +35°C° 0 mm 8 mps 734 mmHg 42%
    06:00 +34°C° 0 mm 8 mps 734 mmHg 44%
    07:00 +34°C° 0 mm 7 mps 735 mmHg 43%
    08:00 +35°C° 0 mm 6 mps 735 mmHg 42%
    09:00 +36°C° 0 mm 6 mps 736 mmHg 41%
    10:00 +37°C° 0 mm 5 mps 736 mmHg 38%
    11:00 +39°C° 0 mm 5 mps 735 mmHg 35%
    12:00 +40°C° 0 mm 4 mps 735 mmHg 32%
    13:00 +41°C° 0 mm 4 mps 735 mmHg 29%
    14:00 +41°C° 0 mm 4 mps 734 mmHg 27%
    15:00 +42°C° 0 mm 3 mps 734 mmHg 24%
    16:00 +42°C° 0 mm 3 mps 734 mmHg 24%
    17:00 +42°C° 0 mm 3 mps 734 mmHg 24%
    18:00 +42°C° 0 mm 3 mps 734 mmHg 24%
    19:00 +40°C° 0.1 mm 2 mps 734 mmHg 25%
    20:00 +40°C° 0.1 mm 2 mps 735 mmHg 27%
    21:00 +39°C° 0.1 mm 2 mps 735 mmHg 28%
    22:00 +39°C° 0 mm 1 mps 735 mmHg 29%
    23:00 +37°C° 0 mm 1 mps 735 mmHg 29%

    25 September, Tuesday

    Time Temperature Precipitation Wind Pressure Humidity
    00:00 +37°C° 0 mm 1 mps 735 mmHg 30%
    01:00 +36°C° 0 mm 1 mps 734 mmHg 31%
    02:00 +36°C° 0 mm 1 mps 734 mmHg 32%
    03:00 +36°C° 0 mm 1 mps 734 mmHg 32%
    04:00 +35°C° 0 mm 1 mps 734 mmHg 33%
    05:00 +35°C° 0 mm 1 mps 734 mmHg 33%
    06:00 +36°C° 0 mm 2 mps 734 mmHg 33%
    07:00 +37°C° 0 mm 2 mps 735 mmHg 32%
    08:00 +37°C° 0 mm 1 mps 735 mmHg 30%
    09:00 +39°C° 0 mm 1 mps 736 mmHg 28%
    10:00 +40°C° 0 mm 1 mps 735 mmHg 25%
    11:00 +41°C° 0 mm 1 mps 735 mmHg 22%
    12:00 +42°C° 0 mm 1 mps 735 mmHg 19%
    13:00 +43°C° 0 mm 2 mps 734 mmHg 18%
    14:00 +45°C° 0 mm 3 mps 733 mmHg 16%
    15:00 +45°C° 0 mm 4 mps 733 mmHg 14%
    16:00 +45°C° 0 mm 4 mps 733 mmHg 13%
    17:00 +45°C° 0 mm 4 mps 733 mmHg 13%
    18:00 +45°C° 0 mm 4 mps 733 mmHg 13%
    19:00 +44°C° 0 mm 3 mps 733 mmHg 13%
    20:00 +43°C° 0 mm 3 mps 733 mmHg 14%
    21:00 +43°C° 0 mm 3 mps 734 mmHg 14%
    22:00 +42°C° 0 mm 3 mps 733 mmHg 14%
    23:00 +42°C° 0 mm 3 mps 733 mmHg 15%

    26 September, Wednesday

    Time Temperature Precipitation Wind Pressure Humidity
    00:00 +42°C° 0 mm 4 mps 733 mmHg 15%
    01:00 +41°C° 0 mm 4 mps 733 mmHg 15%
    02:00 +40°C° 0 mm 3 mps 732 mmHg 16%
    03:00 +39°C° 0 mm 3 mps 732 mmHg 17%
    04:00 +40°C° 0 mm 4 mps 732 mmHg 17%
    05:00 +40°C° 0 mm 4 mps 732 mmHg 17%
    06:00 +40°C° 0 mm 4 mps 733 mmHg 18%
    07:00 +41°C° 0 mm 5 mps 733 mmHg 17%
    08:00 +42°C° 0 mm 5 mps 733 mmHg 16%
    09:00 +44°C° 0 mm 6 mps 734 mmHg 15%
    10:00 +45°C° 0 mm 6 mps 733 mmHg 14%
    11:00 +46°C° 0 mm 6 mps 733 mmHg 13%
    12:00 +47°C° 0 mm 5 mps 732 mmHg 12%
    13:00 +47°C° 0 mm 5 mps 732 mmHg 11%
    14:00 +48°C° 0 mm 4 mps 731 mmHg 10%
    15:00 +48°C° 0 mm 4 mps 731 mmHg 10%
    16:00 +47°C° 0 mm 3 mps 731 mmHg 10%
    17:00 +46°C° 0 mm 3 mps 731 mmHg 10%
    18:00 +46°C° 0 mm 3 mps 731 mmHg 11%
    19:00 +45°C° 0 mm 3 mps 732 mmHg 11%
    20:00 +45°C° 0 mm 3 mps 732 mmHg 11%
    21:00 +44°C° 0 mm 3 mps 732 mmHg 12%
    22:00 +43°C° 0 mm 3 mps 732 mmHg 16%
    23:00 +42°C° 0 mm 4 mps 732 mmHg 20%
    Show more